[[{"header":{"parameterUnit":"m.s-1","parameterCategory":1,"la1":30.2991,"la2":30.254,"lo1":-89.0895,"lo2":-89.0444,"dy":0.0017,"dx":0.0017,"nx":28,"ny":28,"refTime":"2024-09-04T03:00:00:Z","depth":0,"parameterNumber":2,"parameterNumberName":"U-component_of_WINDS"},"data":[0,0,0,0,0,0,0,0,0,0,0,0,0,0,0,0,0,0,0,0,0,0,0,0,0,0,0,0,0,0,0,0,0,0,0,0,0,0,0,0,0,0,0,0,0,0,0,0,0,0,0,0,0,0,0,0,0,0,-7.1991,-7.1992,0,-7.2141,-7.2143,-7.2144,-7.2006,-7.2001,-7.1995,-7.199,-7.2144,-7.2153,-7.2162,0,0,0,0,0,0,0,0,0,0,0,0,0,-7.1583,-7.1591,-7.199,-7.1992,-7.1994,-7.2141,-7.2143,-7.2145,-7.2007,-7.2001,-7.1994,-7.1987,-7.2141,-7.2152,-7.2163,0,0,0,0,0,0,0,0,0,0,0,0,0,-7.175,-7.1594,-7.199,-7.1943,-7.1941,-7.214,-7.2143,-7.2145,-7.2009,-7.2,-7.1992,-7.1984,-7.2137,-7.2151,-7.2164,-7.2418,0,0,-7.2207,-7.2213,0,0,0,0,0,0,0,0,-7.174,-7.1765,-7.1948,-7.1947,-7.1944,-7.2046,-7.2055,-7.2237,-7.2011,-7.1983,-7.199,-7.198,-7.2118,-7.2133,-7.218,-7.2425,-7.2432,-7.2208,-7.2217,-7.2223,-7.2227,0,0,0,0,0,0,0,-7.1729,-7.1757,-7.205,-7.1951,-7.1949,-7.1914,-7.1929,-7.2089,-7.2096,-7.1985,-7.1975,-7.1995,-7.2115,-7.2167,-7.2182,-7.2434,-7.2208,-7.222,-7.2229,-7.2234,-7.2893,-7.2901,0,0,0,0,0,0,-7.1723,-7.1749,-7.2045,-7.2054,-7.182,-7.1929,-7.1945,-7.2022,-7.2093,-7.2096,-7.2002,-7.1988,-7.2147,-7.2166,-7.2187,-7.2487,-7.2223,-7.2236,-7.2244,-7.2884,-7.2895,-7.2905,0,0,0,0,0,0,-7.1714,-7.175,-7.2039,-7.1899,-7.1933,-7.1944,-7.2033,-7.2029,-7.208,-7.2106,-7.2107,-7.2053,-7.2141,-7.2168,-7.2361,-7.249,-7.2242,-7.2255,-7.2873,-7.2887,-7.29,-7.309,0,0,0,0,0,0,-7.1703,-7.1748,-7.1845,-7.1902,-7.1941,-7.2212,-7.2041,-7.2038,-7.2105,-7.2088,-7.2154,-7.2157,-7.2137,-7.2341,-7.2375,-7.2505,-7.2265,-7.2861,-7.2879,-7.2895,-7.3072,-7.3108,-7.3139,0,0,0,0,0,-7.1689,-7.1893,-7.1851,-7.1887,-7.2063,-7.2219,-7.2241,-7.2213,-7.2116,-7.2213,-7.2229,-7.2155,-7.2471,-7.2362,-7.2399,-7.2535,-7.2853,-7.2874,-7.2894,-7.3057,-7.3101,-7.3138,0,0,0,0,0,0,-7.1851,-7.1899,-7.1853,-7.2082,-7.2147,-7.2196,-7.2317,-7.2261,-7.2356,-7.2336,-7.2297,-7.2313,-7.2518,-7.2546,-7.2423,-7.2783,-7.2646,-7.2675,-7.2757,-7.2799,-7.2832,-7.2821,-7.2277,0,0,0,0,0,-7.1913,-7.2036,-7.2072,-7.227,-7.2305,-7.2306,-7.2373,-7.2346,-7.2412,-7.2439,-7.247,-7.2537,-7.2651,-7.2727,-7.2834,-7.3076,-7.3087,-7.3188,-7.3221,-7.3249,-7.3274,-7.3402,-7.3446,-7.2972,-7.2972,-7.2971,0,0,-7.2042,-7.2084,-7.2165,-7.2304,-7.2351,-7.2479,-7.233,-7.2473,-7.2567,-7.2461,-7.2645,-7.267,-7.2742,-7.2961,-7.3059,-7.2991,-7.3407,-7.3275,-7.3297,-7.3307,-7.3428,-7.3472,-7.3512,-7.2986,-7.2983,-7.2981,0,0,-7.2343,-7.2389,-7.2557,-7.2608,-7.2682,-7.2681,-7.2722,-7.2779,-7.2791,-7.2976,-7.2898,-7.301,-7.3208,-7.3262,-7.3315,-7.3637,-7.3571,-7.3673,-7.3848,-7.3973,-7.4011,-7.4043,-7.4156,-7.4197,-7.3698,-7.3698,-7.3699,0,-7.2495,-7.2685,-7.2651,-7.2799,-7.2861,-7.2772,-7.2942,-7.2993,-7.3098,-7.3143,-7.3066,-7.3311,-7.3354,-7.3582,-7.3661,-7.3708,-7.3752,-7.3664,-7.4008,-7.4041,-7.4071,-7.4178,-7.4221,-7.371,-7.3708,-7.3707,-7.3706,0,-7.2867,-7.3,-7.3127,-7.323,-7.3308,-7.3466,-7.3456,-7.3538,-7.3504,-7.3512,-7.3699,-7.3747,-7.3861,-7.3914,-7.3883,-7.4139,-7.4094,-7.4014,-7.3874,-7.4128,-7.4228,-7.4269,-7.3726,-7.3722,-7.3719,-7.3716,0,0,-7.3273,-7.3355,-7.3402,-7.3447,-7.3522,-7.3624,-7.3778,-7.3889,-7.396,-7.4036,-7.4163,-7.4332,-7.4257,-7.4318,-7.4292,-7.4403,-7.4652,-7.4308,-7.4309,-7.4369,-7.4935,-7.4993,-7.5042,-7.461,-7.4618,-7.4624,-7.4928,0,-7.3575,-7.3842,-7.3816,-7.4069,-7.419,-7.4107,-7.4241,-7.4301,-7.4312,-7.4416,-7.4428,-7.4548,-7.4441,-7.4477,-7.4583,-7.4599,-7.4765,-7.4577,-7.4726,-7.4732,-7.4709,-7.5094,-7.5157,-7.5441,-7.4967,-7.4974,-7.4978,0,-7.3963,-7.4051,-7.4317,-7.4372,-7.4422,-7.4543,-7.4641,-7.4743,-7.4809,-7.4809,-7.4877,-7.4832,-7.4986,-7.4845,-7.5056,-7.4929,-7.4988,-7.5006,-7.5016,-7.5027,-7.4869,-7.5114,-7.5532,-7.5574,-7.504,-7.5035,-7.5031,0,-7.423,-7.4416,-7.4598,-7.4639,-7.4709,-7.4795,-7.4828,-7.4886,-7.4954,-7.5041,-7.5085,-7.5189,-7.5245,-7.5327,-7.531,-7.521,-7.5525,-7.5383,-7.5528,-7.5529,-7.5596,-7.5592,-7.6028,-7.5639,-7.5638,-7.5638,-7.5637,0,-7.4568,-7.4734,-7.4718,-7.4831,-7.5013,-7.4981,-7.5163,-7.5185,-7.5237,-7.5351,-7.5286,-7.5395,-7.5368,-7.5475,-7.5464,-7.5639,-7.5666,-7.5669,-7.5663,-7.5674,-7.5673,-7.571,-7.5689,-7.5649,-7.5646,-7.5644,-7.5642,0,-7.4896,-7.4893,-7.5086,-7.5136,-7.5152,-7.5284,-7.5326,-7.5432,-7.5437,-7.5583,-7.5615,-7.5624,-7.5747,-7.5739,-7.5879,-7.587,-7.6086,-7.6059,-7.6064,-7.6057,-7.6201,-7.6187,-7.6675,-7.6736,-7.631,-7.6314,-7.6317,0,-7.5112,-7.5237,-7.53,-7.5371,-7.541,-7.5527,-7.5595,-7.557,-7.5644,-7.5729,-7.5824,-7.5941,-7.6033,-7.6234,-7.6252,-7.6358,-7.6331,-7.6495,-7.6346,-7.6352,-7.6331,-7.6322,-7.6334,-7.6523,-7.6528,-7.6532,-7.6535,0,-7.5493,-7.5485,-7.5587,-7.5689,-7.5773,-7.5852,-7.5924,-7.5986,-7.5968,-7.6055,-7.6179,-7.6251,-7.6393,-7.651,-7.6611,-7.6643,-7.6587,-7.6582,-7.6621,-7.6631,-7.6628,-7.6629,-7.6141,-7.657,-7.6567,-7.6564,-7.6562,-7.6561,-7.577,-7.5876,-7.5937,-7.6052,-7.6103,-7.6172,-7.6273,-7.6291,-7.6395,-7.6508,-7.6486,-7.6626,-7.6688,-7.6818,-7.6861,-7.6969,-7.6911,-7.6967,-7.6981,-7.6995,-7.701,-7.6613,-7.6988,-7.6987,-7.6986,-7.6985,-7.6985,0,-7.6146,-7.6181,-7.6287,-7.6389,-7.648,-7.6419,-7.6495,-7.6575,-7.6699,-7.6762,-7.6853,-7.6997,-7.7109,-7.7137,-7.7245,-7.7326,-7.7303,-7.7355,-7.7348,-7.7356,-7.7058,-7.7013,-7.7373,-7.7373,-7.7372,-7.7372,-7.7372,-7.7372,-7.6352,-7.6528,-7.6528,-7.6728,-7.6762,-7.6898,-7.6946,-7.7009,-7.7059,-7.7221,-7.7314,-7.7332,-7.738,-7.7491,-7.7591,-7.7596,-7.7638,-7.7701,-7.7696,-7.7416,-7.7377,-7.734,-7.7297,-7.7711,-7.7712,-7.7984,-7.7987,-7.7989]},{"header":{"parameterUnit":"m.s-1","parameterCategory":1,"la1":30.2991,"la2":30.254,"lo1":-89.0895,"lo2":-89.0444,"dy":0.0017,"dx":0.0017,"nx":28,"ny":28,"refTime":"2024-09-04T03:00:00:Z","depth":0,"parameterNumber":3,"parameterNumberName":"V-component_of_WINDS"},"data":[0,0,0,0,0,0,0,0,0,0,0,0,0,0,0,0,0,0,0,0,0,0,0,0,0,0,0,0,0,0,0,0,0,0,0,0,0,0,0,0,0,0,0,0,0,0,0,0,0,0,0,0,0,0,0,0,0,0,-0.6438,-0.6436,0,-0.6322,-0.6321,-0.6319,-0.6282,-0.6283,-0.6283,-0.6284,-0.6161,-0.6157,-0.6154,0,0,0,0,0,0,0,0,0,0,0,0,0,-0.662,-0.6617,-0.6438,-0.6436,-0.6435,-0.6322,-0.6321,-0.6319,-0.6282,-0.6283,-0.6283,-0.6284,-0.6162,-0.6158,-0.6153,0,0,0,0,0,0,0,0,0,0,0,0,0,-0.6526,-0.6616,-0.6438,-0.6403,-0.6399,-0.6322,-0.6321,-0.6319,-0.6282,-0.6283,-0.6284,-0.6284,-0.6164,-0.6158,-0.6153,-0.6102,0,0,-0.6135,-0.6133,0,0,0,0,0,0,0,0,-0.6532,-0.652,-0.641,-0.6405,-0.64,-0.6317,-0.634,-0.6246,-0.6282,-0.6326,-0.6284,-0.6285,-0.6212,-0.6202,-0.6179,-0.6096,-0.6091,-0.6135,-0.6131,-0.6129,-0.6127,0,0,0,0,0,0,0,-0.6538,-0.6524,-0.6392,-0.6408,-0.6402,-0.6391,-0.6378,-0.6322,-0.6266,-0.6322,-0.6319,-0.6306,-0.621,-0.6184,-0.6176,-0.6089,-0.6135,-0.613,-0.6126,-0.6124,-0.5954,-0.5953,0,0,0,0,0,0,-0.6552,-0.653,-0.6395,-0.6388,-0.647,-0.6387,-0.6373,-0.6343,-0.6266,-0.6256,-0.6306,-0.6305,-0.6194,-0.6182,-0.6171,-0.6104,-0.6129,-0.6124,-0.612,-0.5956,-0.5954,-0.5953,0,0,0,0,0,0,-0.6556,-0.654,-0.64,-0.6458,-0.644,-0.6383,-0.635,-0.634,-0.6315,-0.6254,-0.6243,-0.6291,-0.6194,-0.6179,-0.6119,-0.61,-0.6121,-0.6116,-0.5957,-0.5955,-0.5954,-0.5972,0,0,0,0,0,0,-0.6561,-0.6542,-0.6523,-0.6458,-0.6437,-0.6351,-0.6349,-0.6338,-0.6306,-0.6304,-0.6237,-0.6227,-0.6193,-0.6127,-0.6113,-0.6092,-0.6112,-0.5958,-0.5956,-0.5954,-0.5972,-0.5971,-0.5969,0,0,0,0,0,-0.6568,-0.6533,-0.6523,-0.6507,-0.6413,-0.6351,-0.6338,-0.6302,-0.6305,-0.6284,-0.6245,-0.6229,-0.6104,-0.6122,-0.6105,-0.6082,-0.5959,-0.5957,-0.5954,-0.5973,-0.5971,-0.5969,0,0,0,0,0,0,-0.6596,-0.6524,-0.6512,-0.6455,-0.6409,-0.6344,-0.6318,-0.6301,-0.6253,-0.6252,-0.6208,-0.6193,-0.6135,-0.6103,-0.6123,-0.6027,-0.6031,-0.6025,-0.6051,-0.6048,-0.6047,-0.6055,-0.6107,0,0,0,0,0,-0.6596,-0.6553,-0.6491,-0.6447,-0.6425,-0.6375,-0.6347,-0.6323,-0.6273,-0.6253,-0.6209,-0.616,-0.6109,-0.6077,-0.6028,-0.5968,-0.5951,-0.5943,-0.5942,-0.5941,-0.5936,-0.5899,-0.5894,-0.5945,-0.5945,-0.5945,0,0,-0.6595,-0.655,-0.6525,-0.6451,-0.6413,-0.6368,-0.6359,-0.6312,-0.6277,-0.6245,-0.6186,-0.6151,-0.6093,-0.6032,-0.6003,-0.6003,-0.5918,-0.5938,-0.5937,-0.5933,-0.5896,-0.5891,-0.5887,-0.5943,-0.5943,-0.5944,0,0,-0.6569,-0.6532,-0.649,-0.6451,-0.6394,-0.6361,-0.6351,-0.6288,-0.6264,-0.6203,-0.6178,-0.6135,-0.605,-0.6008,-0.5976,-0.5933,-0.5915,-0.5918,-0.5909,-0.5873,-0.5869,-0.5866,-0.5848,-0.5842,-0.5913,-0.5913,-0.5913,0,-0.6574,-0.6506,-0.647,-0.6423,-0.639,-0.636,-0.6316,-0.628,-0.6208,-0.6185,-0.6187,-0.6077,-0.6037,-0.5964,-0.5953,-0.5929,-0.5914,-0.5925,-0.5873,-0.5869,-0.5865,-0.5847,-0.5841,-0.5914,-0.5914,-0.5913,-0.5913,0,-0.6514,-0.6467,-0.644,-0.6373,-0.6336,-0.6291,-0.6245,-0.6213,-0.6191,-0.6158,-0.6094,-0.6044,-0.5983,-0.5964,-0.5942,-0.5887,-0.5889,-0.5883,-0.5885,-0.5861,-0.5844,-0.5837,-0.5914,-0.5914,-0.5914,-0.5914,0,0,-0.6504,-0.6416,-0.6406,-0.6374,-0.6307,-0.6269,-0.6221,-0.6162,-0.6134,-0.6085,-0.6042,-0.5969,-0.5962,-0.5926,-0.5899,-0.5868,-0.5834,-0.5865,-0.5863,-0.5859,-0.5767,-0.5771,-0.5764,-0.5822,-0.5821,-0.5819,-0.5771,0,-0.6468,-0.6383,-0.6348,-0.6278,-0.6232,-0.6202,-0.616,-0.6113,-0.608,-0.6034,-0.5997,-0.5945,-0.5941,-0.5918,-0.5887,-0.5845,-0.5814,-0.5848,-0.5779,-0.5777,-0.5793,-0.5756,-0.576,-0.5718,-0.5764,-0.5763,-0.5762,0,-0.6416,-0.6367,-0.6293,-0.623,-0.6209,-0.6172,-0.6113,-0.6071,-0.6016,-0.5994,-0.5953,-0.5927,-0.5873,-0.5879,-0.5803,-0.5826,-0.5796,-0.577,-0.5768,-0.5759,-0.5768,-0.5744,-0.5703,-0.5696,-0.5752,-0.5753,-0.5753,0,-0.6413,-0.6329,-0.6273,-0.6247,-0.6172,-0.6146,-0.6113,-0.6059,-0.6025,-0.5973,-0.595,-0.5893,-0.586,-0.5815,-0.5774,-0.5783,-0.57,-0.5704,-0.5677,-0.5678,-0.566,-0.5662,-0.5613,-0.5644,-0.5644,-0.5644,-0.5644,0,-0.6376,-0.6331,-0.627,-0.6236,-0.6184,-0.6143,-0.6092,-0.6057,-0.6008,-0.5965,-0.5935,-0.5894,-0.5843,-0.5794,-0.5761,-0.5701,-0.5687,-0.5666,-0.5657,-0.5668,-0.567,-0.5646,-0.5647,-0.5642,-0.5642,-0.5643,-0.5643,0,-0.6364,-0.6322,-0.6259,-0.6193,-0.6175,-0.6139,-0.6082,-0.6046,-0.6011,-0.5955,-0.594,-0.5884,-0.5825,-0.578,-0.5704,-0.5681,-0.5617,-0.5609,-0.5636,-0.5631,-0.5607,-0.5609,-0.5539,-0.5527,-0.5568,-0.5568,-0.5567,0,-0.6343,-0.6308,-0.6238,-0.6207,-0.6175,-0.6126,-0.6091,-0.6048,-0.6012,-0.5945,-0.5916,-0.5856,-0.5806,-0.5713,-0.5664,-0.5605,-0.5594,-0.5573,-0.5584,-0.5595,-0.5591,-0.5593,-0.5588,-0.5571,-0.5571,-0.5571,-0.5571,0,-0.6308,-0.6289,-0.624,-0.6184,-0.6143,-0.6096,-0.6048,-0.6024,-0.5972,-0.5932,-0.5873,-0.5834,-0.5755,-0.5695,-0.563,-0.5594,-0.5572,-0.5568,-0.5558,-0.5568,-0.5584,-0.5573,-0.563,-0.5569,-0.557,-0.557,-0.557,-0.557,-0.6289,-0.6256,-0.6201,-0.6147,-0.6107,-0.6062,-0.6025,-0.5985,-0.5935,-0.5869,-0.5846,-0.5783,-0.5726,-0.5637,-0.5601,-0.555,-0.5548,-0.5535,-0.5531,-0.5528,-0.5528,-0.5594,-0.5538,-0.5538,-0.5538,-0.5538,-0.5538,0,-0.6252,-0.6215,-0.6166,-0.61,-0.6057,-0.6042,-0.5988,-0.5952,-0.5898,-0.5848,-0.5798,-0.5728,-0.5669,-0.5615,-0.5552,-0.5522,-0.551,-0.5506,-0.5507,-0.5499,-0.5534,-0.5548,-0.5517,-0.5517,-0.5517,-0.5517,-0.5517,-0.5517,-0.6227,-0.6169,-0.6143,-0.6063,-0.6026,-0.5966,-0.5936,-0.5893,-0.5852,-0.5776,-0.5727,-0.5693,-0.5639,-0.5572,-0.5516,-0.5501,-0.5479,-0.5477,-0.546,-0.5494,-0.5497,-0.5499,-0.5512,-0.5473,-0.5473,-0.5428,-0.5428,-0.5428]}]]